Find Resurs-P No. 4

NORAD ID: 59371 Int'l Des: 2024-061 Owner: TSSKBP Country: RU operational
LEOCIRCULARRETROGRADESSO

当前视图

正在加载3D地球...

关于 Resurs-P No. 4

正在加载描述...

即将过境

Passes for default location (London). Set your location on the main map for personalized predictions.

高度历史

Loading altitude history...

两行轨道根数

1 59371U 24061A 26150.17142267 .00003976 00000-0 13110-3 0 9996
2 59371 97.2745 98.3867 0000788 118.7755 241.3567 15.32015993121009
Epoch: May 30, 2026 • Age: 7 hours

当前状态

高度 487.5 km
速度 7.62 km/s
星下点 -45.25°S, 147.15°W
发射日期 Mar 31, 2024
运行时间 2.1 years
类型 other

技术详情

分类 Payload
质量 6000.00 kg
干质量 5800.00 kg
总质量 6000.00 kg
长度 7.90 m
直径 2.70 m
跨度 13.00 m
形状 Cy+2 pan
制造商 TSSKBP
平台类型 Resurs P
阶段状态 In Orbit
所有者/国家 TSSKBP/RU

Most Searched